www.pogodaiklimat.ru

Погода и климат >> Архив погоды >> Россия >> Тюменская область >> Ялуторовск


ПОГОДА в Ялуторовске

  • Прогноз погоды в Ялуторовске
  • Монитор погоды в Ялуторовске

АРХИВ ПОГОДЫ в Ялуторовске

Время (UTC), дата Ветер
(напр.,м/с)
 
Видим.   Явления Облачность Т
(С)
Тd
(С)
f
(%)
Тe
(С)
Тes
(С)
Комфортность P
(гПа)
Po
(гПа)
Тmin
(С)
Tmax
(С)
R
(мм)
R24
(мм)
S
(см)
03 14.09 Ю 2 50 км 4/0
[Ci sp]
+10.5 +9.9 96 +9 +10 1016.2 1008.8 +7.7 6
06 14.09 ЮЗ 2 50 км 6/0
[Ci sp]
+18.5 +12.8 69 +20 +25 1015.8 1008.6
09 14.09 З 4 50 км 8/1 1000 м
[Cu hum Ci sp]
+22.9 +10.4 45 +25 +28 комфорт 1014.7 1007.6
12 14.09 ЮЗ 4 50 км 8/5 600 м
[Cb calv Ci]
+22.4 +10.7 47 +24 +25 комфорт 1014.2 1007.1
15 14.09 ЮЗ 2 20 км {ливн. осадки} 3/0
[Ci fib]
+16.1 +11.3 73 +16 +16 1014.3 1007.0 +23.4 0.0
18 14.09 Ю 2 20 км {ливн. осадки} ясно +11.4 +9.8 90 +10 +10 1014.2 1006.8
21 14.09 Ю 2 20 км ясно +9.9 +8.8 93 +8 +8 1014.2 1006.8
00 15.09 Ю 3 20 км ясно +7.8 +6.8 93 +5 +5 1014.3 1006.8
03 15.09 Ю 3 50 км 4/0
[Ci sp]
+10.6 +9.0 90 +8 +9 1014.0 1006.6 +7.7
06 15.09 Ю 3 50 км 4/0
[Ci sp]
+19.4 +10.9 58 +21 +25 комфорт 1013.4 1006.2
09 15.09 ЮЗ 4 50 км 1/1 1000 м
[Cu hum]
+23.9 +8.3 37 +24 +28 комфорт 1012.1 1005.1
12 15.09 ЮЗ 3 50 км 3/3 1000 м
[Cu hum Ci fib]
+23.6 +5.6 31 +24 +24 комфорт 1010.7 1003.7
15 15.09 Ю 3 20 км 4/3 600 м
[Cu hum Ci sp]
+15.6 +7.7 59 +15 +15 1010.0 1002.7 +24.4
18 15.09 Ю 3 20 км 8/4 600 м
[Sc diur, vesp Ac cast Ci sp]
+12.7 +6.9 68 +11 +11 1009.4 1002.1
21 15.09 Ю 4 20 км 4/0
[Ci sp]
+11.1 +6.3 72 +9 +9 1008.8 1001.5
00 16.09 Ю 2 20 км 8/4 600 м
[Sc Ac trans Ci sp]
+9.7 +6.0 78 +8 +8 1008.4 1001.0
03 16.09 Ю 1 50 км 8/3 1000 м
[Sc Ac trans Ci sp]
+12.8 +7.9 72 +13 +13 1007.6 1000.3 +8.9
06 16.09 ЮВ 3 50 км 9/8 600 м
[Sc diur, vesp Ac trans Ci sp]
+17.7 +9.3 58 +18 +18 1005.8 998.7
09 16.09 ЮЗ 4 50 км 10/6 600 м
[Sc diur, vesp As op]
+19.8 +8.2 47 +21 +21 комфорт 1004.8 997.7
12 16.09 СЗ 3 50 км 8/6 600 м
[Sc diur, vesp Ac trans Ci ing]
+17.9 +9.7 59 +18 +18 1003.4 996.3
15 16.09 СВ 1
{10}
20 км в посл. час ливневой дождь 10/10 600 м
[Cb calv]
+10.2 +7.4 83 +10 +10 1005.0 997.7 +20.5 0.5
18 16.09 З 2 20 км в посл. час ливневой дождь {гроза} 10/10 600 м
[Cb calv]
+8.7 +7.7 93 +7 +7 1005.0 997.6
21 16.09 Ю 2 20 км 4/0
[Ci sp]
+6.6 +5.5 93 +4 +4 1004.6 997.2
00 17.09 Ю 4 20 км 10/10 600 м
[Sc]
+7.4 +6.8 96 +4 +4 1003.7 996.3
03 17.09 Ю 4 50 км {ливн. осадки} 10/10 600 м
[Cb calv]
+8.4 +7.8 96 +5 +5 1002.9 995.6 +6.0 2
06 17.09 ЮЗ 6-10
{10}
50 км {ливн. осадки} 10/10 600 м
[Sc diur, vesp]
+10.8 +7.9 82 +8 +8 1002.4 995.1
09 17.09 ЮЗ 5
{11}
50 км 10/10 600 м
[Cb calv]
+13.1 +7.6 69 +11 +11 1002.5 995.3
12 17.09 Ю 2 50 км в посл. час ливневой дождь 8/8 600 м
[Cb calv]
+13.8 +9.3 74 +13 +13 1002.8 995.6
15 17.09 Ю 3
{10}
20 км {ливн. осадки} 3/0
[As op Ci sp]
+9.3 +7.5 89 +7 +7 1004.4 997.0 +14.2 2
18 17.09 Ю 3 20 км {ливн. осадки} ясно +7.4 +6.4 93 +4 +4 1005.0 997.6
21 17.09 Ю 3 20 км ясно +6.9 +6.0 94 +4 +4 1004.5 997.1
00 18.09 Ю 3 20 км 4/0
[Ac trans]
+6.5 +5.1 91 +3 +3 1003.8 996.4
03 18.09 Ю 2 50 км 10/0
[Ac trans Ci]
+8.8 +6.9 88 +7 +8 1003.4 996.0 +5.4
06 18.09 ЮЗ 4 4000 м слаб. дождь 10/10 600 м
[Sc]
+12.8 +9.1 78 +11 +11 1003.9 996.7
09 18.09 Ю 4 4000 м дождь {морось} 10/10 600 м
[Sc]
+13.5 +11.3 87 +12 +12 1003.5 996.2
12 18.09 ЮЗ 1 4000 м слаб. дождь {морось} 10/0
[As op]
+13.5 +11.0 85 +14 +14 1003.1 995.8
15 18.09 З 2 4000 м слаб. дождь 10/0 600 м
[As op]
+12.3 +10.1 86 +11 +11 1001.9 994.7 +14.0 2
18 18.09 ЮЗ 2 4000 м слаб. дождь 10/0
[As op]
+11.6 +10.8 95 +10 +10 1001.8 994.6
21 18.09 ЮЗ 3 20 км {дождь} 10/10 600 м
[Sc]
+11.2 +10.1 93 +9 +9 1002.3 995.0
00 19.09 ЮЗ 2 20 км {дождь} 10/10 600 м
[Sc]
+10.2 +9.3 94 +9 +9 1002.6 995.3
03 19.09 ЮЗ 3 50 км 10/10 600 м
[Sc]
+10.0 +9.0 93 +8 +8 1002.5 995.2 +9.6 3
06 19.09 Ю 4 50 км 10/10 600 м
[Sc]
+10.8 +9.5 92 +8 +8 1001.6 994.3 +9.6
09 19.09 ЮВ 4 4000 м слаб. дождь 10/10 600 м
[Sc]
+11.5 +10.3 92 +9 +9 997.1 989.8
12 19.09 Ю 7-12
{14}
4000 м слаб. дождь 10/10 600 м
[Sc]
+12.8 +11.5 92 +10 +10 989.7 982.5
15 19.09 З 5
{13}
20 км в посл. час ливневой дождь 8/6 600 м
[Cb calv Ci sp]
+10.6 +7.8 83 +8 +8 988.7 981.4 +14.0 12
18 19.09 ЮЗ 5
{14}
20 км {ливн. осадки, дождь} 9/8 600 м
[Sc diur, vesp Ci sp]
+9.3 +4.6 72 +6 +6 988.7 981.5
21 19.09 З 6-11
{16}
20 км 10/10 600 м
[Sc diur, vesp]
+8.2 +4.3 76 +4 +4 992.1 984.8
00 20.09 З 7-12
{12}
20 км 10/10 600 м
[Sc]
+8.6 +5.1 79 +4 +4 998.0 990.6
03 20.09 З 5
{12}
50 км 8/6 600 м
[Sc Ac trans]
+9.0 +5.3 78 +6 +6 1002.4 995.0 +8.1
06 20.09 З 3
{11}
50 км 9/8 600 м
[Cb calv Ci sp]
+9.9 +5.3 73 +8 +9 1005.2 997.9
09 20.09 З 6-10
{10}
50 км {ливн. осадки} 9/6 600 м
[Cb calv Ac trans Ci sp]
+11.8 +4.7 62 +9 +10 1007.1 999.7
12 20.09 З 5
{11}
50 км {ливн. осадки} 4/3 1000 м
[Cu med, cong Ac trans]
+10.4 +4.9 69 +8 +8 1009.2 1001.8
15 20.09 ЮЗ 2 20 км 3/3 1000 м
[Cu med, cong]
+8.0 +4.8 80 +6 +6 1011.8 1004.4 +12.3 0.8
18 20.09 З 2 20 км ясно +5.7 +2.9 82 +3 +3 1013.7 1006.2
21 20.09 Ю 1 20 км ясно +0.8 -0.4 92 -1 -1 1015.5 1007.8
00 21.09 Ю 1 20 км 10/0
[Ac As]
+2.0 +1.3 95 0 0 1016.4 1008.7

 

Местоположение метеостанции Ялуторовск (Тюменская область, Россия): широта 56.68 долгота 66.35 высота над уровнем моря 61 м.

В архиве по умолчанию представлена погода в Ялуторовске за последнюю неделю. Архивные данные за месяц целиком и за предыдущие месяцы, начиная с января 2011 года, Вы можете получить, выбрав интересующий диапазон дат из раскрывающегося списка и нажав кнопку "Ввод!".


*Определитесь, кто Вы:
робот инопланетянин человек

Внимание! Время в таблицах - всемирное. Для получения местного времени необходимо прибавить поправку, которая равна 5 ч.

Смотрите также архив погоды в соседних городах и на ближайших метеорологических станциях:

Погода в Исетском (Тюменская область, Россия) (67 км)
Погода в Тюмени (Тюменская область, Россия) (74 км)
Погода в Памятном (Курганская область, Россия) (84 км)
Погода в Ярково (Тюменская область, Россия) (93 км)
Погода в Шатрово (Курганская область, Россия) (106 км)
Погода в Нижней Тавде (Тюменская область, Россия) (111 км)
Погода в Тугулыме (Свердловская область, Россия) (111 км)
Погода в Голышманово (Тюменская область, Россия) (130 км)
Погода в Аромашево (Тюменская область, Россия) (141 км)
Погода в Кургане (Курганская область, Россия) (149 км)

Пояснения к столбцам:

Ветер - указаны скорость ветра в м/с - средняя за 10 мин, порывы в срок и между сроками (в фигурных скобках) и направление, откуда дует ветер: С - северный, СВ - северо-восточный, В - восточный, ЮВ - юго-восточный, Ю - южный, ЮЗ - юго-западный, З - западный, СЗ - северо-западный.
Видимость - горизонтальная дальность видимости в метрах или километрах. При видимости от 1 до 10 км при отсутствии осадков обычно наблюдается дымка, при ухудшении видимости до 1 км и менее - туман. В сухую погоду видимость может ухудшаться дымом, пылью или мглою.
Явления - указаны атмосферные явления, наблюдавшиеся в срок или в последний час перед сроком; фигурными скобками обозначены явления, наблюдавшиеся между сроками (за 1-3 часа до срока); квадратными скобками обозначены град или гололедные отложения с указанием их диаметра в мм.
Облачность - указаны через наклонную черту общая и нижняя облачность в баллах и высота нижней границы облаков в метрах; квадратными скобками обозначены формы облаков: Ci - перистые, Cs - перисто-слоистые, Cc - перисто-кучевые, Ac - высококучевые, As - высокослоистые, Sc - слоисто-кучевые, Ns - слоисто-дождевые, Cu - кучевые, Cb - кучево-дождевые. Подробнее классификацию облаков см. в Атласе облаков (PDF).
T - Температура воздуха - температура, измеренная на высоте 2 м над землей.
Td - Температура точки росы - температура, при понижении до которой содержащийся в воздухе водяной пар достигнет насыщения.
f - Относительная влажность воздуха - влажноcть воздуха, измеренная на высоте 2 м над землей.
Te - Эффективная температура - температура, которую ощущает одетый по сезону человек в тени. Характеристика душности погоды. При расчете учитывается влияние влажности воздуха и скорости ветра на теплоощущения человека.
Tes - Эффективная температура на солнце - температура, которую ощущает человек, с поправкой на солнечный нагрев. Характеристика знойности погоды. Зависит от высоты солнца над горизонтом, облачности и скорости ветра. Ночью, в пасмурную погоду, а также при ветре 12 м/с и более поправка равна нулю.
P - Атмосферное давление - приведенное к уровню моря атмосферное давление.
Po - Атмосферное давление - измеренное на уровне метеостанции атмосферное давление.
Tmin - Минимальная температура - минимум температуры воздуха на высоте 2 м над землей.
Tmax - Максимальная температура - максимум температуры воздуха на высоте 2 м над землей.
R - Количество осадков - Количество выпавших осадков за период времени, мм. При наведении курсора мыши на число - период времени, за который выпало указанное количество осадков.
R24 - Количество осадков - Количество выпавших осадков за 24 часа, мм.
S - Снежный покров - Высота снежного покрова, см. При наведении курсора мыши на число - состояние снежного покрова и степень покрытия местности в баллах.